Wind_Speed
82 88 95 102 107 112 116 121 124 129 130 129 125 124 121 119 115 108 103 96 93 90 85 80 76 73 70 66 63 61 60 59 57 68 77 80 82 85 88 90 93 97 101
88 95 100 107 112 115 121 125 129 128 123 123 122 117 113 108 102 98 92 89 85 81 77 74 72 68 65 62 60 60 58 56 53 61 69 72 73 74 79 82 85 89 95
95 102 107 112 116 121 126 129 127 126 125 123 115 108 99 94 91 88 83 80 76 74 72 68 65 62 60 57 55 55 55 53 49 53 62 63 65 67 72 75 77 80 88
102 108 112 115 121 127 127 127 126 123 119 113 106 98 91 86 82 79 77 75 72 68 66 63 60 57 55 53 52 52 51 50 49 47 56 57 56 60 63 67 71 73 80
108 112 116 121 125 124 126 123 122 117 110 103 97 91 86 82 78 76 73 69 67 64 62 58 55 53 49 47 47 47 47 46 45 45 49 54 55 55 56 59 64 67 74
113 121 124 127 125 126 123 121 115 105 101 93 88 82 79 76 73 71 68 66 62 58 55 54 52 48 46 43 42 43 44 44 42 40 44 49 50 48 48 52 59 62 67
121 125 128 129 125 121 120 113 105 97 92 86 81 78 75 71 69 66 62 61 59 55 53 52 52 48 44 43 39 40 42 42 38 38 43 46 43 42 43 49 53 55 61
123 128 128 128 123 119 113 104 97 89 82 78 75 72 68 66 64 61 59 55 52 49 49 48 47 45 43 41 38 35 35 36 35 38 41 36 36 37 41 45 47 51 55
129 128 128 126 120 115 104 94 87 81 78 74 70 67 64 61 59 56 54 50 47 46 43 43 43 40 38 36 33 31 31 31 32 34 32 33 34 37 39 41 43 46 50
129 127 125 121 113 107 96 88 81 78 74 71 67 63 60 57 54 52 50 50 48 45 42 39 36 35 33 31 29 27 27 26 27 28 29 30 29 30 34 36 38 41 44
127 125 124 119 107 98 89 82 78 74 70 66 63 59 57 53 52 51 50 48 46 42 39 35 32 31 29 27 25 24 23 21 22 24 25 26 26 28 29 30 33 36 38
129 125 122 112 101 92 85 79 75 70 67 63 59 55 53 52 51 49 47 44 42 40 37 34 30 28 26 23 22 21 20 19 20 22 23 24 25 25 26 28 29 31 34
127 123 114 105 94 87 80 76 70 67 64 60 56 55 55 53 50 45 43 43 41 37 34 31 28 26 23 21 19 18 17 18 18 19 21 23 23 23 24 26 27 29 33
123 115 106 97 88 81 76 71 67 64 60 58 57 54 51 50 48 46 42 38 37 34 31 28 25 24 22 20 18 17 15 16 17 18 20 21 22 23 24 24 26 29 32
114 105 96 89 82 76 72 67 64 61 59 57 54 51 49 48 47 45 42 39 35 32 29 27 24 22 20 19 18 16 15 14 16 18 19 19 20 21 23 24 26 28 31
103 95 88 82 77 72 67 64 60 59 57 54 51 48 48 46 44 42 39 36 34 31 27 25 23 22 20 18 18 17 15 14 15 16 17 19 20 21 22 23 25 27 29
93 88 81 77 72 68 65 61 58 57 54 51 49 47 45 43 40 38 37 34 31 29 26 24 23 21 20 19 18 18 17 16 16 18 18 19 20 20 21 22 24 27 28
86 81 76 72 69 66 63 59 58 55 51 49 49 47 44 41 39 36 35 33 31 28 26 24 23 22 21 21 20 20 20 19 19 19 20 20 21 21 23 24 25 26 27
80 76 72 68 65 63 59 57 56 53 51 50 48 46 42 40 38 36 35 33 29 28 27 25 24 23 22 22 22 22 22 21 22 22 22 22 22 23 24 24 24 26 27
77 73 69 66 63 60 57 55 53 51 50 48 46 43 40 38 37 36 34 33 30 28 27 26 25 23 22 23 24 24 24 24 24 24 25 25 25 26 26 26 26 27 27
72 69 67 63 60 58 55 54 52 50 47 44 43 40 39 37 36 34 33 31 30 29 28 26 25 24 23 23 24 26 26 26 26 26 27 27 28 28 27 28 28 28 28
68 66 63 60 58 56 54 52 51 49 45 43 41 39 37 36 36 34 32 31 30 29 27 27 25 24 24 24 24 25 27 28 29 29 30 29 29 29 30 30 30 31 30
65 63 60 57 56 54 53 52 50 47 44 42 40 37 36 36 36 35 33 32 30 29 27 25 24 24 24 24 24 25 26 27 29 30 31 31 32 32 32 31 32 32 32
63 60 56 55 53 51 50 51 48 45 43 41 39 38 37 36 35 35 34 33 32 30 28 25 23 24 24 23 24 25 26 26 27 29 31 32 32 33 32 32 33 33 33
59 55 54 53 52 50 50 49 47 43 42 40 40 39 38 37 35 34 33 32 32 31 29 26 24 23 24 24 24 25 26 26 27 27 27 30 32 33 33 32 33 33 34
54 53 52 51 50 49 49 48 45 42 41 41 40 40 39 38 37 35 34 32 31 30 29 27 25 23 22 23 23 23 24 25 26 27 27 28 29 31 32 33 32 32 33
Wind_Direction
300 301 302 304 305 306 305 305 307 308 308 308 307 306 304 303 303 303 300 300 298 298 299 297 294 291 288 285 281 276 270 264 255 254 253 252 250 249 249 247 244 240 237
305 305 306 308 308 306 308 309 309 309 310 308 308 306 306 305 304 302 302 300 300 298 296 295 292 291 288 285 281 277 271 266 258 253 252 251 249 246 247 245 244 241 239
308 311 310 310 309 308 309 310 312 312 312 309 307 307 307 306 304 303 301 300 299 299 297 296 295 292 289 286 281 276 274 269 261 256 255 251 249 246 244 243 241 239 239
311 310 310 310 309 310 312 314 313 313 311 309 310 309 309 307 306 304 304 302 302 301 301 298 295 293 291 288 283 278 274 269 265 256 256 256 250 247 244 243 242 238 238
311 310 311 310 312 313 315 315 314 313 312 311 311 311 310 309 307 306 304 305 304 304 300 298 296 294 292 287 283 280 275 270 265 260 257 256 254 249 244 241 240 238 237
311 311 312 314 315 317 317 317 314 313 312 312 312 311 309 309 308 306 307 306 306 302 301 300 296 294 292 287 282 278 273 269 265 260 255 254 253 251 245 241 239 237 235
314 314 315 315 318 319 319 316 315 315 314 313 312 311 311 310 308 308 308 306 306 306 305 303 300 299 295 289 283 276 273 270 265 258 252 252 251 247 242 238 237 237 236
316 316 317 319 321 321 319 317 316 315 314 314 313 312 312 310 308 309 308 307 307 307 305 303 301 300 296 292 288 280 272 265 259 251 253 254 251 244 237 234 234 234 234
316 317 320 320 322 321 319 318 317 317 316 315 314 313 312 311 311 310 309 310 310 307 306 304 301 299 296 293 289 284 274 265 258 252 250 246 243 240 238 234 233 234 233
318 319 320 320 322 321 320 319 320 319 317 316 317 315 313 314 313 314 314 313 312 311 310 307 303 300 297 294 290 286 280 268 259 254 247 246 245 244 239 235 232 231 232
319 320 321 322 322 321 321 321 321 319 318 317 317 316 317 318 317 317 315 314 314 313 311 308 307 304 301 297 291 285 281 273 262 253 248 245 242 240 238 235 233 232 230
320 321 322 322 322 322 322 322 321 320 319 319 319 319 320 318 318 317 316 316 315 314 313 311 309 306 304 300 293 285 278 271 260 253 248 245 244 241 239 237 233 232 228
320 320 321 322 322 322 322 322 321 321 320 321 322 321 321 320 319 319 319 317 316 316 314 311 308 306 304 300 294 288 281 275 265 256 249 245 243 241 239 236 233 232 230
319 319 321 321 322 322 323 322 322 322 323 323 323 323 322 321 320 320 319 318 317 318 316 312 308 307 304 297 291 286 280 273 266 257 249 244 241 239 236 233 230 228 229
318 320 321 321 322 322 323 323 322 323 323 323 323 323 323 323 320 320 320 320 319 319 316 313 308 307 301 295 288 282 277 270 262 256 252 248 244 239 236 233 230 228 228
318 320 320 321 322 323 323 323 323 324 323 324 323 324 323 321 320 319 320 319 319 317 313 312 309 304 299 292 286 279 273 268 261 258 253 250 246 241 238 236 234 232 232
318 320 321 321 322 323 323 323 324 324 324 324 324 324 322 321 321 320 320 320 319 317 313 310 309 302 295 288 283 279 271 263 259 257 251 247 245 243 242 242 242 242 241
320 320 322 322 322 323 323 324 324 324 324 324 324 323 323 323 323 323 322 320 319 319 316 311 306 301 292 285 279 277 273 265 258 254 254 252 250 248 247 246 245 244 242
320 321 322 322 322 322 323 324 324 324 324 325 324 324 324 325 324 323 323 322 320 319 316 311 307 299 291 283 277 272 270 268 263 258 254 251 250 250 252 250 247 245 246
321 322 322 322 322 322 323 324 324 324 324 324 325 323 323 324 323 324 323 322 321 318 315 311 306 299 290 281 275 271 268 265 264 261 258 256 254 252 253 253 251 250 251
321 322 321 321 322 322 324 325 324 324 325 325 324 323 322 322 322 323 323 322 322 318 315 311 305 298 290 283 276 270 268 265 264 262 261 259 257 256 254 254 254 254 253
320 320 321 321 322 322 324 324 324 324 325 326 324 322 321 321 323 325 325 324 322 319 316 312 305 297 293 285 280 274 268 265 264 262 261 260 259 258 257 257 257 256 255
319 320 321 321 322 323 323 323 323 324 325 324 322 321 322 322 323 324 324 324 322 319 318 313 305 298 293 288 284 279 272 267 264 262 261 260 259 257 256 257 257 258 258
318 319 320 321 322 322 323 323 323 324 323 322 322 324 325 325 324 322 322 321 321 319 317 315 307 300 295 292 286 281 277 272 268 264 260 260 259 259 258 257 256 256 256
317 319 321 321 322 323 323 322 322 322 322 322 323 325 325 324 324 321 320 319 319 318 317 313 309 303 297 293 288 282 277 274 271 267 265 260 257 257 258 258 258 257 255
319 320 321 322 322 322 322 321 320 321 322 322 324 325 324 324 323 323 320 320 319 318 318 315 312 307 301 295 288 283 279 276 273 270 267 265 261 256 256 257 257 258 258
Height
10496 10480 10465 10449 10433 10416 10396 10378 10360 10339 10322 10296 10279 10260 10240 10218 10200 10187 10170 10159 10147 10136 10128 10122 10116 10112 10107 10104 10103 10102 10101 10103 10111 10102 10099 10102 10108 10116 10122 10132 10144 10156 10166
10474 10459 10443 10424 10407 10388 10366 10350 10331 10307 10290 10265 10243 10226 10207 10189 10171 10155 10143 10130 10121 10113 10105 10098 10092 10088 10083 10080 10077 10073 10073 10075 10082 10078 10074 10077 10085 10093 10096 10104 10114 10125 10134
10449 10433 10416 10399 10379 10359 10340 10318 10296 10275 10252 10230 10213 10196 10181 10164 10146 10131 10120 10109 10100 10091 10083 10076 10070 10064 10059 10056 10054 10051 10048 10050 10056 10056 10050 10056 10062 10070 10074 10080 10090 10099 10104
10427 10408 10391 10374 10351 10329 10309 10286 10262 10240 10219 10199 10181 10167 10153 10137 10124 10110 10097 10086 10078 10069 10061 10055 10049 10043 10039 10035 10032 10029 10028 10030 10032 10036 10030 10033 10041 10046 10055 10062 10068 10077 10081
10401 10382 10367 10348 10325 10301 10279 10258 10231 10209 10189 10171 10156 10140 10125 10113 10102 10088 10077 10067 10057 10049 10041 10035 10028 10024 10021 10017 10013 10009 10008 10009 10011 10013 10013 10014 10019 10026 10036 10042 10046 10055 10061
10376 10357 10337 10317 10294 10272 10246 10224 10201 10184 10162 10148 10133 10120 10106 10094 10081 10069 10058 10046 10040 10033 10024 10014 10009 10006 10003 10000 9997 9993 9990 9990 9993 9996 9996 9997 10001 10008 10017 10023 10026 10034 10042
10349 10326 10303 10282 10263 10241 10216 10194 10173 10157 10139 10124 10111 10099 10086 10074 10061 10051 10042 10032 10022 10014 10006 9998 9991 9989 9986 9982 9982 9980 9977 9976 9980 9981 9980 9982 9987 9992 9998 10001 10006 10016 10022
10321 10298 10276 10254 10234 10213 10192 10171 10151 10135 10121 10107 10093 10081 10070 10058 10046 10036 10026 10018 10009 10001 9993 9985 9978 9974 9970 9967 9966 9965 9964 9963 9965 9966 9967 9974 9975 9979 9981 9986 9991 9997 10004
10297 10273 10249 10226 10208 10188 10168 10149 10132 10116 10100 10088 10076 10065 10053 10041 10031 10022 10012 10003 9995 9988 9981 9974 9967 9962 9958 9955 9953 9952 9951 9951 9952 9954 9957 9959 9962 9964 9969 9973 9978 9983 9988
10267 10247 10226 10203 10184 10164 10145 10127 10111 10096 10081 10069 10059 10048 10036 10027 10017 10007 9998 9989 9981 9975 9969 9962 9957 9951 9948 9945 9943 9941 9939 9940 9941 9943 9946 9948 9952 9955 9958 9963 9968 9972 9979
10239 10221 10198 10177 10160 10142 10124 10108 10095 10080 10067 10055 10045 10033 10022 10013 10003 9995 9986 9977 9970 9964 9957 9952 9947 9943 9939 9936 9933 9932 9931 9932 9933 9935 9937 9939 9942 9944 9948 9952 9956 9963 9970
10212 10194 10173 10154 10137 10121 10105 10090 10078 10065 10052 10041 10031 10019 10010 10001 9993 9985 9975 9968 9960 9954 9948 9943 9939 9935 9931 9928 9926 9924 9924 9924 9926 9927 9929 9931 9934 9937 9939 9943 9948 9953 9959
10190 10171 10152 10135 10119 10103 10088 10075 10062 10050 10038 10027 10017 10006 9996 9987 9980 9974 9967 9958 9951 9946 9939 9934 9931 9927 9924 9922 9920 9919 9918 9919 9919 9921 9923 9925 9927 9930 9933 9936 9940 9945 9948
10167 10150 10133 10117 10102 10088 10074 10061 10049 10036 10025 10015 10004 9995 9986 9977 9969 9963 9957 9951 9943 9937 9932 9927 9924 9921 9918 9916 9914 9913 9913 9913 9914 9915 9916 9919 9921 9924 9926 9930 9933 9937 9940
10146 10131 10116 10100 10086 10072 10060 10049 10036 10024 10014 10004 9994 9985 9976 9969 9960 9953 9946 9940 9935 9930 9925 9921 9918 9915 9913 9911 9909 9908 9908 9908 9909 9909 9911 9913 9916 9918 9921 9924 9927 9930 9933
10129 10114 10100 10084 10071 10058 10047 10037 10025 10013 10003 9994 9984 9976 9968 9961 9953 9945 9940 9933 9927 9922 9918 9915 9912 9909 9907 9905 9904 9903 9902 9902 9903 9904 9906 9908 9910 9913 9916 9919 9921 9924 9927
10113 10098 10085 10070 10058 10045 10034 10024 10014 10004 9993 9984 9976 9968 9960 9953 9946 9938 9931 9926 9921 9916 9912 9908 9905 9903 9901 9900 9899 9898 9897 9897 9898 9899 9901 9902 9904 9906 9909 9911 9913 9916 9918
10097 10082 10069 10057 10044 10033 10022 10011 10001 9992 9984 9976 9967 9959 9951 9944 9937 9930 9924 9918 9913 9909 9905 9902 9899 9897 9895 9894 9893 9893 9892 9892 9892 9893 9894 9895 9897 9899 9901 9903 9906 9908 9910
10081 10068 10055 10043 10032 10022 10011 10001 9991 9982 9973 9964 9956 9948 9940 9934 9928 9922 9916 9910 9907 9902 9898 9895 9893 9891 9889 9887 9886 9886 9886 9886 9886 9886 9887 9888 9890 9892 9893 9895 9898 9899 9901
10065 10052 10041 10031 10021 10011 10001 9991 9982 9972 9964 9955 9947 9939 9932 9926 9921 9915 9908 9903 9899 9895 9892 9888 9885 9883 9882 9880 9879 9878 9878 9878 9879 9879 9880 9880 9882 9884 9885 9887 9889 9890 9892
10050 10039 10028 10018 10008 9999 9990 9981 9971 9963 9955 9946 9939 9932 9925 9919 9914 9908 9902 9897 9892 9888 9884 9881 9878 9875 9873 9872 9871 9870 9870 9870 9870 9870 9871 9872 9873 9874 9876 9878 9879 9881 9882
10038 10027 10016 10006 9996 9987 9979 9970 9961 9953 9945 9938 9931 9924 9918 9911 9906 9900 9894 9890 9885 9881 9877 9873 9870 9867 9865 9863 9862 9861 9860 9860 9861 9861 9861 9862 9863 9864 9865 9867 9868 9869 9872
10024 10014 10004 9994 9985 9976 9968 9959 9952 9944 9936 9929 9923 9917 9910 9904 9897 9892 9887 9882 9878 9873 9870 9866 9862 9859 9857 9855 9853 9852 9851 9851 9851 9851 9852 9852 9853 9854 9856 9857 9858 9859 9860
10011 10002 9992 9983 9975 9967 9958 9950 9942 9935 9927 9920 9914 9908 9902 9895 9890 9884 9879 9874 9870 9866 9862 9858 9855 9851 9849 9847 9845 9843 9842 9841 9841 9841 9842 9842 9843 9844 9845 9846 9847 9848 9848
9998 9989 9980 9971 9964 9956 9948 9941 9933 9926 9919 9912 9906 9899 9893 9887 9882 9877 9871 9866 9862 9857 9854 9850 9847 9843 9840 9838 9836 9834 9832 9831 9831 9831 9831 9831 9832 9833 9834 9835 9836 9836 9837
9987 9976 9968 9960 9953 9946 9939 9932 9924 9917 9910 9904 9897 9890 9885 9879 9874 9868 9863 9859 9854 9849 9845 9841 9838 9835 9832 9829 9827 9825 9823 9822 9821 9821 9821 9820 9821 9822 9823 9824 9825 9825 9826